Weather in Pody

Russia / Astrakhan Oblast     48°15′13″N   45°53′17″E
temp.,
°C
wind,
m/s
gust,
m/s
humid.,
%
clouds,
%
prec.,
mm/h
press.,
hPa
HPBL,
m
1 august, sun
sun101:00+27sse22241 0.0 101012
04:00+25s33260 0.0 101127
07:00+26ne11250 0.0 101244
10:00+33ese33160 0.0 1012790
13:00+36e33140 0.0 10113319
16:00+38e43142 0.0 10103889
19:00+36e441850 0.0 10092784
22:00+30se34310 0.0 101051
2 august, mon
mon201:00+28sse33363 0.0 101026
04:00+28s2240100 0.0 101128
07:00+29ssw224246 0.1 101162
10:00+35s332821 0.1 10121414
13:00+39s56140 0.0 10113469
16:00+39ssw66120 0.0 10103806
19:00+38s45130 0.0 10103483
22:00+31sse331933 0.0 101020
3 august, tue
tue301:00+28se11265 0.0 101012
04:00+28s332475 0.0 101022
07:00+29s352481 0.0 1011110
10:00+37s44135 0.0 10111079
13:00+40ssw66100 0.0 10103776
16:00+40ssw66880 0.0 10094016
19:00+39ssw4690 0.0 10082338
22:00+31sw33150 0.0 100915
4 august, wed
wed401:00+29s44160 0.0 100931
04:00+28ssw48195 0.0 1009107
07:00+28sw37227 0.0 1009171
10:00+35wsw2316100 0.0 1010723
13:00+35n3319100 0.0 10101206
16:00+37n1321100 0.2 10102418
19:00+34nnw5728100 0.1 1010649
22:00+29nnw5113739 0.1 1012286
5 august, thu
thu501:00+27n6123797 0.0 1013401
04:00+25n5949100 0.0 1013318
07:00+24n5848100 0.0 1014325
10:00+28nne564193 0.0 1015900
13:00+32n65281 0.0 10142696
16:00+33n55200 0.0 10142965
19:00+32nne662012 0.0 10142752
22:00+26nne4927100 0.0 1014147